Station COVM2 - 8577018 - Cove Point LNG Pier, MD Image indicating link to RSS feed of recent meteorological observations for station COVM2


Conditions at COVM2 as of
(7:18 pm EDT)
2318 GMT on 05/22/2024:
     

Click on the graph icon in the table below to see a time series plot of the last five days of that observation.

5-day plot - Wind Direction Wind Direction (WDIR): S ( 170 deg true )
5-day plot - Wind Speed Wind Speed (WSPD): 17.1 kts
5-day plot - Wind Gust Wind Gust (GST): 19.0 kts
5-day plot - Atmospheric Pressure Atmospheric Pressure (PRES):29.90 in
5-day plot - Air Temperature Air Temperature (ATMP): 72.3 °F
5-day plot - Wind Speed at 10 Meters Wind Speed at 10 meters (WSPD10M): 15.5 kts
5-day plot - Wind Speed at 20 Meters Wind Speed at 20 meters (WSPD20M): 15.5 kts
5-day plot -  Wind Speed, Wind Gust and Atmospheric Pressure Combined plot of Wind Speed, Gust, and Air Pressure
NOS Water Level Observation Network Water Level
Previous observations
TIME
(EDT)
5-day plot - Wind Direction
WDIR
 
5-day plot - Wind Speed
WSPD
kts
5-day plot - Wind Gust
GST
kts
5-day plot - Wave Height
WVHT
ft
5-day plot - Dominant Wave Period
DPD
sec
5-day plot - Average Wave Period
APD
sec
5-day plot - Mean Wave Direction
MWD
 
5-day plot - Atmospheric Pressure
PRES
in
5-day plot - Pressure Tendency
PTDY
in
5-day plot - Air Temperature
ATMP
°F
5-day plot - Water Temperature
WTMP
°F
5-day plot - Dew Point
DEWP
°F
5-day plot - Salinity
SAL
psu
5-day plot - Visibility
VIS
nmi
5-day plot - Tide (above MLLW)
TIDE
ft
2024-05-22 07:12 pm S 15.9 19.0----29.90- 72.1-----
2024-05-22 07:06 pmSSE 15.0 17.1----29.90- 72.1-----
2024-05-22 07:00 pmSSE 15.0 19.0----29.89-0.03 72.5-----
2024-05-22 06:54 pm S 15.9 19.0----29.90- 72.7-----
2024-05-22 06:48 pm S 15.0 18.1----29.90-------
2024-05-22 06:42 pmSSE 15.9 18.1----29.89-------
2024-05-22 06:36 pmSSE 17.1 19.0----29.89-------
2024-05-22 06:30 pmSSE 15.9 17.1----29.89- 72.0-----
2024-05-22 06:24 pmSSE 15.9 18.1----29.90- 72.0-----
2024-05-22 06:18 pmSSE 15.0 17.1----29.90- 71.8-----
2024-05-22 06:12 pmSSE 14.0 15.9----29.90- 71.8-----
2024-05-22 06:06 pmSSE 13.0 15.0----29.91- 71.8-----
2024-05-22 06:00 pm-------29.91-0.04 71.8-----
2024-05-22 05:54 pm-------29.91- 72.0-----
2024-05-22 05:48 pmSSE 13.0 15.0----29.92-------
2024-05-22 05:42 pmSSE 12.0 15.0----29.92-------
2024-05-22 05:36 pm S 14.0 15.0----29.92-------
2024-05-22 05:30 pm S 12.0 15.0----29.92- 72.7-----
2024-05-22 05:24 pmSSE 14.0 15.0----29.92- 72.3-----
2024-05-22 05:18 pmSSE 13.0 15.9----29.92- 72.3-----
2024-05-22 05:12 pmSSE 13.0 15.0----29.92- 72.3-----
2024-05-22 05:06 pmSSE 13.0 15.9----29.92- 72.0-----
2024-05-22 05:00 pmSSE 14.0 15.9----29.92- 72.0-----
2024-05-22 04:54 pmSSE 14.0 18.1----29.92- 72.0-----
2024-05-22 04:48 pmSSE 15.9 17.1----29.92- 72.0-----
2024-05-22 04:42 pmSSE 15.0 18.1----29.92- 71.8-----
2024-05-22 04:36 pmSSE 15.9 17.1----29.92- 71.8-----
2024-05-22 04:30 pmSSE 15.0 17.1----29.92- 71.6-----
2024-05-22 04:24 pmSSE 15.9 18.1----29.93- 71.6-----
2024-05-22 04:18 pmSSE 15.9 18.1----29.93- 71.6-----
2024-05-22 04:12 pmSSE 15.9 17.1----29.93- 71.4-----
2024-05-22 04:06 pmSSE 15.0 17.1----29.93- 71.1-----
2024-05-22 04:00 pmSSE 15.0 15.9----29.93-0.05 71.2-----
2024-05-22 03:54 pmSSE 14.0 15.9----29.93- 71.2-----
2024-05-22 03:48 pmSSE 14.0 15.0----29.93- 71.2-----
2024-05-22 03:42 pmSSE 13.0 15.0----29.93- 71.1-----
2024-05-22 03:36 pmSSE 14.0 15.0----29.94- 71.1-----
2024-05-22 03:30 pmSSE 14.0 15.9----29.94- 70.9-----
2024-05-22 03:24 pmSSE 13.0 15.0----29.94- 70.7-----
2024-05-22 03:18 pmSSE 12.0 13.0----29.94- 70.9-----
2024-05-22 03:12 pm S 12.0 13.0----29.95- 71.1-----
2024-05-22 03:06 pmSSE 12.0 13.0----29.95- 70.7-----
2024-05-22 03:00 pm S 11.1 13.0----29.95-0.04 70.9-----
2024-05-22 02:54 pm S 12.0 14.0----29.95- 71.1-----
2024-05-22 02:48 pm S 12.0 15.0----29.96- 70.9-----
2024-05-22 02:42 pm S 12.0 13.0----29.96- 70.5-----
2024-05-22 02:36 pmSSE 12.0 14.0----29.96- 70.7-----
2024-05-22 02:30 pm S 12.0 13.0----29.96- 70.7-----
2024-05-22 02:24 pmSSE 12.0 14.0----29.96- 70.7-----
2024-05-22 02:18 pmSSE 12.0 15.0------------
2024-05-22 02:12 pmSSE 14.0 15.9------------
2024-05-22 02:06 pmSSE 13.0 15.0------------
2024-05-22 02:00 pmSSE 14.0 15.9------------
2024-05-22 01:54 pmSSE 13.0 15.0------------
2024-05-22 01:48 pmSSE 12.0 15.0------------
2024-05-22 01:42 pmSSE 13.0 15.0------------
2024-05-22 01:36 pmSSE 13.0 15.0------------
2024-05-22 01:30 pmSSE 12.0 15.0----29.97-------
2024-05-22 01:24 pmSSE 11.1 12.0----29.97-------
2024-05-22 01:18 pmSSE 8.9 12.0------------
2024-05-22 01:12 pmSSE 9.9 12.0------------
2024-05-22 01:06 pmSSE 9.9 12.0------------
2024-05-22 01:00 pmSSE 11.1 11.1----29.97-0.03------
2024-05-22 12:54 pmSSE 9.9 11.1----29.98-------
2024-05-22 12:48 pmSSE 9.9 11.1------------
2024-05-22 12:42 pmSSE 8.9 9.9------------
2024-05-22 12:36 pmSSE 8.9 9.9------------
2024-05-22 12:30 pmSSE 8.9 11.1------------
2024-05-22 12:24 pmSSE 8.9 9.9------------
2024-05-22 12:18 pmSSE 8.9 11.1------ 68.7-----
2024-05-22 12:12 pmSSE 9.9 11.1------ 68.5-----
2024-05-22 12:06 pmSSE 9.9 11.1------ 68.4-----
2024-05-22 12:00 pmSSE 9.9 11.1----29.99-0.03 68.5-----
2024-05-22 11:54 amSSE 9.9 11.1----29.99- 68.5-----
2024-05-22 11:48 amSSE 9.9 12.0----30.00- 68.5-----
2024-05-22 11:42 amSSE 11.1 12.0----30.00- 68.4-----
2024-05-22 11:36 amSSE 12.0 13.0----30.00- 68.2-----
2024-05-22 11:30 amSSE 12.0 13.0----30.00- 68.0-----
2024-05-22 11:24 am SE 12.0 14.0----30.00- 68.0-----
2024-05-22 11:18 am SE 12.0 13.0----29.99- 68.0-----
2024-05-22 11:12 am SE 12.0 12.0----29.99- 68.0-----
2024-05-22 11:06 am SE 9.9 12.0----30.00- 67.8-----
2024-05-22 11:00 am SE 12.0 13.0----30.00-0.01 67.8-----
2024-05-22 10:54 amSSE 12.0 14.0----30.01- 68.0-----
2024-05-22 10:48 am SE 12.0 13.0----30.00-------
2024-05-22 10:42 am SE 12.0 12.0----30.00-------
2024-05-22 10:36 am SE 12.0 13.0----30.00-------
2024-05-22 10:30 amSSE 12.0 13.0------------
2024-05-22 10:24 am SE 13.0 14.0------------
2024-05-22 10:18 am SE 13.0 14.0------------
2024-05-22 10:12 am SE 12.0 13.0------------
2024-05-22 10:06 am SE 13.0 14.0------------
2024-05-22 10:00 am SE 11.1 12.0----30.01+0.00 68.0-----
2024-05-22 09:54 am SE 9.9 11.1----30.01- 67.8-----
2024-05-22 09:48 am SE 9.9 11.1----30.01-------
2024-05-22 09:42 am SE 9.9 9.9----30.01-------
2024-05-22 09:36 am SE 8.9 9.9----30.01-------
2024-05-22 09:30 amSSE 8.0 9.9------------
2024-05-22 09:24 amSSE 8.9 9.9------------
2024-05-22 09:18 amSSE 8.9 9.9----30.01-------
2024-05-22 09:12 amSSE 8.9 9.9----30.01-------
2024-05-22 09:06 amSSE 8.9 9.9----30.02-------
2024-05-22 09:00 am SE 8.9 9.9----30.02+0.02 68.0-----
2024-05-22 08:54 amSSE 8.9 9.9----30.02- 68.2-----
2024-05-22 08:48 amSSE 8.0 8.9----30.02- 68.5-----
2024-05-22 08:42 amSSE 8.0 8.9----30.02- 68.2-----
2024-05-22 08:36 am SE 8.9 8.9----30.02- 68.0-----
2024-05-22 08:30 am SE 8.0 8.9----30.01- 67.6-----
2024-05-22 08:24 am SE 8.0 8.9----30.02- 68.0-----
2024-05-22 08:18 am S 7.0 8.9----30.02- 69.4-----
2024-05-22 08:12 am S 8.0 9.9----30.02- 68.7-----
2024-05-22 08:06 am SE 8.0 8.9----30.01- 67.5-----
2024-05-22 08:00 amSSE 8.0 8.9----30.01+0.02 67.6-----
2024-05-22 07:54 am SE 7.0 8.0----30.02- 67.5-----
2024-05-22 07:48 amSSE 6.0 8.0----30.01- 67.8-----
2024-05-22 07:42 am S 7.0 8.9----30.01- 67.8-----
2024-05-22 07:36 am S 5.1 7.0----30.01- 67.5-----
2024-05-22 07:30 amSSE 6.0 8.0----30.01- 67.3-----
2024-05-22 07:24 am S 6.0 7.0----30.01- 67.5-----
2024-05-22 07:18 am S 5.1 7.0----30.01- 67.3-----
2024-05-22 07:12 am S 6.0 8.0----30.01- 67.1-----
2024-05-22 07:06 amSSE 6.0 8.0----30.00- 66.9-----
2024-05-22 07:00 amSSE 7.0 8.9----30.00+0.01 66.7-----
2024-05-22 06:54 amSSE 8.0 8.9----30.00- 66.6-----
2024-05-22 06:48 amSSE 7.0 8.0----30.00- 66.2-----
2024-05-22 06:42 amSSE 6.0 7.0----30.00- 66.2-----
2024-05-22 06:36 am S 6.0 8.0----30.00- 66.0-----
2024-05-22 06:30 amSSE 5.1 9.9----30.00- 65.8-----
2024-05-22 06:24 am S 8.0 11.1----30.00- 65.8-----
2024-05-22 06:18 am S 9.9 12.0----30.00- 65.8-----
2024-05-22 06:12 am S 9.9 12.0----30.00- 65.8-----
2024-05-22 06:06 am S 8.9 12.0----30.00- 65.8-----
2024-05-22 06:00 amSSW 8.9 11.1----30.00+0.00 65.7-----
2024-05-22 05:54 am S 9.9 12.0----30.00- 65.7-----
2024-05-22 05:48 amSSW 8.9 13.0----29.99- 65.7-----
2024-05-22 05:42 am S 8.0 11.1----29.99- 65.5-----
2024-05-22 05:36 amSSW 9.9 15.0----29.99- 65.7-----
2024-05-22 05:30 amSSW 13.0 15.9----29.99- 65.8-----
2024-05-22 05:24 amSSW 13.0 15.0----29.99- 66.0-----
2024-05-22 05:18 am SW 11.1 15.0----29.99- 65.8-----
2024-05-22 05:12 amSSW 9.9 12.0----29.99- 65.7-----
2024-05-22 05:06 am S 7.0 8.9----29.99- 64.9-----
2024-05-22 05:00 am S 5.1 7.0----29.99-0.01 64.6-----
2024-05-22 04:54 am S 6.0 7.0----29.99- 64.4-----
2024-05-22 04:48 am S 6.0 7.0----29.99- 64.2-----
2024-05-22 04:42 am S 5.1 7.0----29.99- 64.2-----
2024-05-22 04:36 am S 6.0 7.0----29.99- 64.2-----
2024-05-22 04:30 am S 6.0 8.0----29.99- 64.4-----
2024-05-22 04:24 amSSE 6.0 7.0----29.99- 64.2-----
2024-05-22 04:18 am S 6.0 7.0----30.00- 64.2-----
2024-05-22 04:12 amSSE 5.1 7.0----30.00- 64.4-----
2024-05-22 04:06 am S 6.0 8.0----29.99- 64.2-----
2024-05-22 04:00 am S 6.0 8.0----29.99+0.00 64.2-----
2024-05-22 03:54 am S 6.0 8.0----30.00- 64.2-----
2024-05-22 03:48 am S 6.0 8.0----30.00- 64.4-----
2024-05-22 03:42 am S 6.0 7.0----29.99- 64.6-----
2024-05-22 03:36 am S 6.0 7.0----29.99- 64.8-----
2024-05-22 03:30 am S 7.0 8.0----29.99- 64.9-----
2024-05-22 03:24 amSSE 7.0 8.0----29.99- 64.9-----
2024-05-22 03:18 amSSE 6.0 7.0----29.99- 64.9-----
2024-05-22 03:12 amSSE 6.0 7.0----29.99- 64.8-----
2024-05-22 03:06 am S 6.0 7.0----30.00- 64.9-----
2024-05-22 03:00 am S 6.0 7.0----30.00+0.00 65.1-----
2024-05-22 02:54 am S 6.0 8.0----29.99- 65.1-----
2024-05-22 02:48 am S 6.0 8.0----29.99- 65.1-----
2024-05-22 02:42 amSSE 7.0 8.0----30.00- 65.1-----
2024-05-22 02:36 amSSE 6.0 8.0----30.00- 65.1-----
2024-05-22 02:30 amSSE 6.0 7.0----30.00- 64.9-----
2024-05-22 02:24 am S 6.0 7.0----30.00- 64.9-----
2024-05-22 02:18 am S 6.0 7.0----30.00- 65.1-----
2024-05-22 02:12 am S 7.0 8.0----30.00- 65.1-----
2024-05-22 02:06 am S 7.0 8.9----30.00- 65.5-----
2024-05-22 02:00 am S 8.0 9.9----30.00+0.00 65.5-----
2024-05-22 01:54 am S 8.9 9.9----30.00- 65.7-----
2024-05-22 01:48 amSSE 9.9 9.9----29.99- 65.5-----
2024-05-22 01:42 amSSE 8.9 9.9----29.99- 65.5-----
2024-05-22 01:36 am S 9.9 12.0----29.99- 65.5-----
2024-05-22 01:30 am S 9.9 12.0----29.99- 65.7-----
2024-05-22 01:24 am S 12.0 13.0----29.99- 65.7-----
2024-05-22 01:18 am S 12.0 14.0----29.99- 65.8-----
2024-05-22 01:12 am S 13.0 15.0----29.99- 65.8-----
2024-05-22 01:06 am S 13.0 14.0----29.99- 65.8-----
2024-05-22 01:00 am S 12.0 14.0----29.99-0.01 66.0-----
2024-05-22 12:54 am S 13.0 14.0----29.99- 66.0-----
2024-05-22 12:48 amSSE 13.0 15.0----29.99- 66.0-----
2024-05-22 12:42 amSSE 12.0 15.0----29.99- 66.2-----
2024-05-22 12:36 am S 13.0 15.9----29.99- 66.6-----
2024-05-22 12:30 amSSE 14.0 15.9----29.99- 66.6-----
2024-05-22 12:24 amSSE 14.0 15.9----29.99- 66.6-----
2024-05-22 12:18 amSSE 14.0 15.9----29.99- 66.6-----
2024-05-22 12:12 amSSE 14.0 15.0----29.99- 66.6-----
2024-05-22 12:06 amSSE 14.0 15.9----30.00- 66.6-----
2024-05-22 12:00 amSSE 14.0 15.0----30.00+0.02 66.7-----
2024-05-21 11:54 pmSSE 12.0 14.0----30.00- 66.9-----
2024-05-21 11:48 pmSSE 13.0 14.0----30.00- 66.9-----
2024-05-21 11:42 pmSSE 13.0 14.0----30.00- 66.9-----
2024-05-21 11:36 pmSSE 9.9 12.0----30.00- 67.1-----
2024-05-21 11:30 pmSSE 11.1 13.0----30.00- 66.9-----
2024-05-21 11:24 pmSSE 12.0 14.0----30.00- 67.1-----
2024-05-21 11:18 pmSSE 12.0 13.0----30.00- 67.1-----
2024-05-21 11:12 pmSSE 12.0 13.0----30.00- 67.1-----
2024-05-21 11:06 pmSSE 12.0 13.0----30.00- 67.3-----
2024-05-21 11:00 pmSSE 11.1 12.0----30.00+0.01 67.3-----
2024-05-21 10:54 pm S 9.9 12.0----30.01- 67.3-----
2024-05-21 10:48 pm S 8.9 12.0----30.01- 67.3-----
2024-05-21 10:42 pm S 9.9 11.1----30.01- 67.3-----
2024-05-21 10:36 pm S 9.9 11.1----30.01- 67.6-----
2024-05-21 10:30 pm S 9.9 12.0----30.01- 67.8-----
2024-05-21 10:24 pm S 8.9 13.0----30.01- 68.0-----
2024-05-21 10:18 pm S 12.0 14.0----30.01- 68.2-----
2024-05-21 10:12 pmSSE 12.0 13.0----30.00- 68.2-----
2024-05-21 10:06 pmSSE 11.1 13.0----30.00- 68.2-----
2024-05-21 10:00 pmSSE 9.9 12.0----30.00+0.01 68.2-----
2024-05-21 09:54 pm S 9.9 11.1----30.00- 68.2-----
2024-05-21 09:48 pm S 9.9 11.1----30.00- 68.2-----
2024-05-21 09:42 pm S 9.9 12.0----30.00- 68.2-----
2024-05-21 09:36 pm S 12.0 13.0----29.99- 68.4-----
2024-05-21 09:30 pm S 12.0 13.0----29.99- 68.4-----
2024-05-21 09:24 pmSSE 12.0 13.0----29.98- 68.4-----
2024-05-21 09:18 pmSSE 12.0 13.0----29.98- 68.5-----
2024-05-21 09:12 pmSSE 11.1 13.0----29.98- 68.4-----
2024-05-21 09:06 pmSSE 11.1 13.0----29.98- 68.4-----
2024-05-21 09:00 pmSSE 12.0 14.0----29.98-0.01 68.4-----
2024-05-21 08:54 pmSSE 13.0 14.0----29.98- 68.4-----
2024-05-21 08:48 pmSSE 13.0 14.0----29.98- 68.4-----
2024-05-21 08:42 pmSSE 12.0 13.0----29.99- 68.4-----
2024-05-21 08:36 pmSSE 12.0 13.0----29.99- 68.5-----
2024-05-21 08:30 pmSSE 12.0 14.0----29.99- 68.5-----
2024-05-21 08:24 pmSSE 12.0 13.0----29.99- 68.5-----
2024-05-21 08:18 pmSSE 12.0 13.0----29.99- 68.5-----
2024-05-21 08:12 pmSSE 12.0 14.0----29.99- 68.7-----
2024-05-21 08:06 pmSSE 12.0 14.0----29.99- 68.9-----
2024-05-21 08:00 pmSSE 12.0 14.0----29.99+0.00 68.9-----
2024-05-21 07:54 pmSSE 12.0 13.0----29.99- 69.1-----